| time (UTC) | temp C | wind direction | speed KPH | gust KPH | rain 1hr cm | rain 24hr cm | rain mn cm | humidity % | barometer mb |
| 20260506162552 | 16 | 228 | 1.6 | 8.0 | 0.10 | 0.10 | 0.10 | 94 | 1008.8 |
| 20260506162052 | 16 | 213 | 1.6 | 8.0 | 0.08 | 0.08 | 0.08 | 93 | 1009.0 |
| 20260506161555 | 16 | 194 | 0.0 | 8.0 | 0.05 | 0.05 | 0.05 | 92 | 1009.1 |
| 20260506161052 | 16 | 192 | 1.6 | 6.4 | 0.05 | 0.05 | 0.05 | 92 | 1009.3 |
| 20260506160552 | 16 | 0 | 0.0 | 4.8 | 0.03 | 0.03 | 0.03 | 92 | 1009.3 |
| 20260506160055 | 16 | 0 | 0.0 | 6.4 | 0.03 | 0.03 | 0.03 | 92 | 1009.3 |
| 20260506155555 | 16 | 190 | 0.0 | 6.4 | 0.03 | 0.03 | 0.03 | 91 | 1009.5 |
| 20260506155055 | 16 | 209 | 0.0 | 6.4 | 0.00 | 0.00 | 0.00 | 91 | 1009.5 |
| 20260506154610 | 16 | 0 | 0.0 | 8.0 | 0.00 | 0.00 | 0.00 | 90 | 1009.5 |
| 20260506154052 | 16 | 197 | 1.6 | 8.0 | 0.00 | 0.00 | 0.00 | 89 | 1009.6 |
| 20260506153552 | 17 | 0 | 0.0 | 6.4 | 0.00 | 0.00 | 0.00 | 89 | 1009.5 |
| 20260506153053 | 17 | 0 | 0.0 | 8.0 | 0.00 | 0.00 | 0.00 | 89 | 1009.4 |
| 20260506152552 | 17 | 176 | 1.6 | 8.0 | 0.00 | 0.00 | 0.00 | 88 | 1009.4 |
| 20260506152052 | 17 | 198 | 1.6 | 11.3 | 0.00 | 0.00 | 0.00 | 88 | 1009.4 |
| 20260506151554 | 17 | 185 | 1.6 | 11.3 | 0.00 | 0.00 | 0.00 | 87 | 1009.4 |
| 20260506151052 | 17 | 178 | 1.6 | 8.0 | 0.00 | 0.00 | 0.00 | 86 | 1009.4 |
| 20260506150553 | 17 | 189 | 0.0 | 9.7 | 0.00 | 0.00 | 0.00 | 86 | 1009.3 |
| 20260506150055 | 17 | 210 | 0.0 | 12.9 | 0.00 | 0.00 | 0.00 | 85 | 1009.3 |
| 20260506145553 | 17 | 173 | 1.6 | 14.5 | 0.00 | 0.00 | 0.00 | 82 | 1009.3 |
| 20260506145052 | 18 | 117 | 3.2 | 14.5 | 0.00 | 0.00 | 0.00 | 81 | 1009.5 |
| 20260506144559 | 18 | 133 | 3.2 | 12.9 | 0.00 | 0.00 | 0.00 | 79 | 1009.6 |
| 20260506144054 | 18 | 174 | 3.2 | 12.9 | 0.00 | 0.00 | 0.00 | 78 | 1009.5 |
| 20260506143555 | 18 | 201 | 4.8 | 12.9 | 0.00 | 0.00 | 0.00 | 77 | 1009.5 |
| 20260506143055 | 18 | 187 | 3.2 | 11.3 | 0.00 | 0.00 | 0.00 | 78 | 1009.5 |
| 20260506142553 | 18 | 198 | 3.2 | 11.3 | 0.00 | 0.00 | 0.00 | 78 | 1009.5 |
| 20260506142052 | 18 | 200 | 4.8 | 11.3 | 0.00 | 0.00 | 0.00 | 77 | 1009.4 |
| 20260506141555 | 18 | 182 | 1.6 | 9.7 | 0.00 | 0.00 | 0.00 | 78 | 1009.5 |
| 20260506141055 | 18 | 185 | 3.2 | 9.7 | 0.00 | 0.00 | 0.00 | 78 | 1009.4 |
| 20260506140555 | 18 | 187 | 3.2 | 11.3 | 0.00 | 0.00 | 0.00 | 78 | 1009.3 |
| 20260506140054 | 18 | 201 | 3.2 | 11.3 | 0.00 | 0.00 | 0.00 | 78 | 1009.3 |
| 20260506135552 | 18 | 0 | 3.2 | 11.3 | 0.00 | 0.00 | 0.00 | 78 | 1009.3 |
| 20260506135052 | 18 | 185 | 3.2 | 25.7 | 0.00 | 0.00 | 0.00 | 78 | 1009.3 |
| 20260506134552 | 18 | 167 | 4.8 | 25.7 | 0.00 | 0.00 | 0.00 | 77 | 1009.4 |
| 20260506134055 | 18 | 169 | 3.2 | 11.3 | 0.00 | 0.00 | 0.00 | 78 | 1009.4 |
| 20260506133553 | 18 | 188 | 3.2 | 12.9 | 0.00 | 0.00 | 0.00 | 78 | 1009.5 |
| 20260506133116 | 18 | 132 | 3.2 | 12.9 | 0.00 | 0.00 | 0.00 | 78 | 1009.6 |
| 20260506132552 | 18 | 191 | 4.8 | 11.3 | 0.00 | 0.00 | 0.00 | 78 | 1009.7 |
| 20260506132053 | 18 | 171 | 1.6 | 14.5 | 0.00 | 0.00 | 0.00 | 78 | 1009.8 |
| 20260506131555 | 18 | 217 | 4.8 | 14.5 | 0.00 | 0.00 | 0.00 | 78 | 1009.6 |
| 20260506131052 | 18 | 183 | 1.6 | 12.9 | 0.00 | 0.00 | 0.00 | 78 | 1009.8 |
| 20260506130552 | 18 | 182 | 3.2 | 12.9 | 0.00 | 0.00 | 0.00 | 79 | 1009.6 |
| 20260506130120 | 18 | 208 | 4.8 | 14.5 | 0.00 | 0.00 | 0.00 | 79 | 1009.6 |
| 20260506125552 | 17 | 169 | 1.6 | 14.5 | 0.00 | 0.00 | 0.00 | 79 | 1009.7 |
| 20260506125052 | 17 | 182 | 4.8 | 14.5 | 0.00 | 0.00 | 0.00 | 78 | 1009.7 |
| 20260506124554 | 17 | 180 | 1.6 | 11.3 | 0.00 | 0.00 | 0.00 | 79 | 1009.6 |
| 20260506124052 | 17 | 212 | 1.6 | 11.3 | 0.00 | 0.00 | 0.00 | 78 | 1009.3 |
| 20260506123552 | 17 | 188 | 1.6 | 6.4 | 0.00 | 0.00 | 0.00 | 80 | 1009.4 |
| 20260506123054 | 17 | 177 | 0.0 | 9.7 | 0.00 | 0.00 | 0.00 | 80 | 1009.4 |
| 20260506122553 | 17 | 179 | 3.2 | 9.7 | 0.00 | 0.00 | 0.00 | 80 | 1009.3 |
| 20260506122051 | 17 | 186 | 1.6 | 11.3 | 0.00 | 0.00 | 0.00 | 79 | 1009.4 |
| 20260506121555 | 17 | 205 | 3.2 | 11.3 | 0.00 | 0.00 | 0.00 | 80 | 1009.4 |
| 20260506121053 | 17 | 142 | 1.6 | 9.7 | 0.00 | 0.00 | 0.00 | 79 | 1009.5 |
| 20260506120552 | 17 | 200 | 3.2 | 9.7 | 0.00 | 0.00 | 0.00 | 80 | 1009.5 |
| 20260506120054 | 17 | 232 | 1.6 | 11.3 | 0.00 | 0.00 | 0.00 | 81 | 1009.5 |
| 20260506115557 | 17 | 194 | 1.6 | 11.3 | 0.00 | 0.00 | 0.00 | 80 | 1009.5 |
| 20260506115053 | 17 | 188 | 1.6 | 9.7 | 0.00 | 0.00 | 0.00 | 80 | 1009.6 |
| 20260506114604 | 17 | 213 | 1.6 | 9.7 | 0.00 | 0.00 | 0.00 | 80 | 1009.6 |
| 20260506114052 | 17 | 183 | 1.6 | 19.3 | 0.00 | 0.00 | 0.00 | 81 | 1009.7 |
| 20260506113552 | 17 | 246 | 4.8 | 19.3 | 0.00 | 0.00 | 0.00 | 80 | 1009.8 |
| 20260506113052 | 17 | 188 | 3.2 | 16.1 | 0.00 | 0.00 | 0.00 | 80 | 1009.7 |
| 20260506112553 | 17 | 175 | 3.2 | 16.1 | 0.00 | 0.00 | 0.00 | 80 | 1009.6 |
| 20260506112055 | 17 | 180 | 1.6 | 11.3 | 0.00 | 0.00 | 0.00 | 80 | 1009.5 |
| 20260506111553 | 17 | 196 | 1.6 | 12.9 | 0.00 | 0.00 | 0.00 | 81 | 1009.5 |
| 20260506111052 | 17 | 165 | 3.2 | 12.9 | 0.00 | 0.00 | 0.00 | 81 | 1009.6 |
| 20260506110552 | 17 | 192 | 3.2 | 12.9 | 0.00 | 0.00 | 0.00 | 80 | 1009.5 |
| 20260506110054 | 17 | 190 | 4.8 | 12.9 | 0.00 | 0.00 | 0.00 | 80 | 1009.4 |
| 20260506105553 | 17 | 262 | 3.2 | 12.9 | 0.00 | 0.00 | 0.00 | 80 | 1009.4 |
| 20260506105053 | 17 | 193 | 4.8 | 17.7 | 0.00 | 0.00 | 0.00 | 80 | 1009.3 |
| 20260506104623 | 17 | 178 | 4.8 | 17.7 | 0.00 | 0.00 | 0.00 | 81 | 1009.4 |
| 20260506104052 | 17 | 107 | 3.2 | 9.7 | 0.00 | 0.00 | 0.00 | 80 | 1009.3 |
| 20260506103553 | 17 | 194 | 3.2 | 9.7 | 0.00 | 0.00 | 0.00 | 81 | 1009.3 |
| 20260506103055 | 17 | 186 | 0.0 | 4.8 | 0.00 | 0.00 | 0.00 | 82 | 1009.3 |
| 20260506102553 | 17 | 0 | 0.0 | 4.8 | 0.00 | 0.00 | 0.00 | 82 | 1009.2 |
| 20260506102053 | 17 | 159 | 1.6 | 4.8 | 0.00 | 0.00 | 0.00 | 82 | 1009.3 |
| 20260506101556 | 17 | 204 | 0.0 | 6.4 | 0.00 | 0.00 | 0.00 | 82 | 1009.3 |
| 20260506101052 | 17 | 198 | 1.6 | 6.4 | 0.00 | 0.00 | 0.00 | 82 | 1009.3 |
| 20260506100552 | 17 | 0 | 0.0 | 3.2 | 0.00 | 0.00 | 0.00 | 82 | 1009.3 |
| 20260506100054 | 17 | 0 | 0.0 | 9.7 | 0.00 | 0.00 | 0.00 | 82 | 1009.3 |
| 20260506095554 | 17 | 0 | 1.6 | 9.7 | 0.00 | 0.03 | 0.00 | 82 | 1009.2 |
| 20260506095053 | 17 | 192 | 1.6 | 9.7 | 0.00 | 0.03 | 0.00 | 82 | 1009.2 |
| 20260506094553 | 17 | 0 | 1.6 | 6.4 | 0.00 | 0.03 | 0.00 | 82 | 1009.3 |
| 20260506094052 | 17 | 184 | 1.6 | 4.8 | 0.00 | 0.03 | 0.00 | 82 | 1009.3 |
| 20260506093552 | 17 | 232 | 0.0 | 8.0 | 0.00 | 0.03 | 0.00 | 82 | 1009.2 |
| 20260506093052 | 17 | 292 | 1.6 | 8.0 | 0.00 | 0.03 | 0.00 | 82 | 1009.2 |
| 20260506092553 | 17 | 234 | 0.0 | 8.0 | 0.00 | 0.03 | 0.00 | 82 | 1009.2 |
| 20260506092052 | 17 | 190 | 1.6 | 11.3 | 0.00 | 0.03 | 0.00 | 82 | 1009.3 |
| 20260506091555 | 17 | 242 | 0.0 | 11.3 | 0.00 | 0.03 | 0.00 | 82 | 1009.3 |
| 20260506091054 | 17 | 0 | 0.0 | 6.4 | 0.00 | 0.03 | 0.00 | 82 | 1009.3 |
| 20260506090553 | 17 | 208 | 0.0 | 4.8 | 0.00 | 0.03 | 0.00 | 82 | 1009.4 |
| 20260506090055 | 17 | 0 | 1.6 | 4.8 | 0.00 | 0.03 | 0.00 | 82 | 1009.5 |
| 20260506085552 | 17 | 196 | 0.0 | 6.4 | 0.00 | 0.03 | 0.00 | 82 | 1009.5 |
| 20260506085054 | 17 | 235 | 1.6 | 6.4 | 0.00 | 0.03 | 0.00 | 82 | 1009.4 |
| 20260506084555 | 17 | 0 | 0.0 | 6.4 | 0.00 | 0.03 | 0.00 | 81 | 1009.5 |
| 20260506084052 | 17 | 0 | 0.0 | 6.4 | 0.00 | 0.03 | 0.00 | 81 | 1009.5 |
| 20260506083553 | 17 | 0 | 0.0 | 6.4 | 0.00 | 0.03 | 0.00 | 80 | 1009.6 |
| 20260506083055 | 17 | 0 | 0.0 | 9.7 | 0.00 | 0.03 | 0.00 | 80 | 1009.6 |
| 20260506082552 | 17 | 122 | 1.6 | 9.7 | 0.00 | 0.03 | 0.00 | 80 | 1009.6 |
| 20260506082053 | 17 | 190 | 1.6 | 8.0 | 0.00 | 0.03 | 0.00 | 81 | 1009.5 |
| 20260506081558 | 17 | 0 | 0.0 | 8.0 | 0.00 | 0.03 | 0.00 | 80 | 1009.5 |
| 20260506081053 | 17 | 0 | 0.0 | 8.0 | 0.00 | 0.03 | 0.00 | 80 | 1009.6 |
| 20260506080553 | 17 | 0 | 0.0 | 8.0 | 0.00 | 0.03 | 0.00 | 80 | 1009.6 |
| 20260506080104 | 17 | 0 | 1.6 | 8.0 | 0.00 | 0.03 | 0.00 | 80 | 1009.6 |
| 20260506073057 | 17 | 0 | 0.0 | 6.4 | 0.00 | 0.03 | 0.00 | 78 | 1009.8 |
| 20260506072553 | 17 | 0 | 0.0 | 6.4 | 0.00 | 0.03 | 0.00 | 78 | 1009.8 |
| 20260506072052 | 17 | 0 | 1.6 | 6.4 | 0.00 | 0.03 | 0.00 | 79 | 1009.6 |
| 20260506071621 | 17 | 190 | 0.0 | 4.8 | 0.00 | 0.03 | 0.00 | 79 | 1009.8 |
| 20260506071052 | 17 | 169 | 0.0 | 4.8 | 0.00 | 0.03 | 0.00 | 79 | 1009.8 |
| 20260506070552 | 17 | 0 | 0.0 | 3.2 | 0.00 | 0.03 | 0.00 | 78 | 1009.8 |
| 20260506062053 | 17 | 0 | 0.0 | 6.4 | 0.00 | 0.03 | 0.00 | 75 | 1010.1 |
| 20260506061556 | 17 | 0 | 0.0 | 3.2 | 0.00 | 0.03 | 0.00 | 75 | 1010.1 |
| 20260506061053 | 17 | 0 | 0.0 | 6.4 | 0.00 | 0.03 | 0.00 | 75 | 1010.2 |
| 20260506060555 | 17 | 0 | 0.0 | 6.4 | 0.00 | 0.03 | 0.00 | 74 | 1010.3 |
| 20260506051052 | 18 | 0 | 0.0 | 9.7 | 0.00 | 0.03 | 0.00 | 71 | 1010.4 |
| 20260506050553 | 18 | 0 | 0.0 | 9.7 | 0.00 | 0.03 | 0.00 | 71 | 1010.5 |
| 20260506045052 | 18 | 0 | 0.0 | 6.4 | 0.00 | 0.03 | 0.00 | 70 | 1010.6 |
| 20260506044610 | 18 | 0 | 0.0 | 8.0 | 0.00 | 0.03 | 0.00 | 70 | 1010.6 |
| 20260506044052 | 18 | 244 | 0.0 | 8.0 | 0.00 | 0.03 | 0.00 | 70 | 1010.6 |
| 20260506043552 | 18 | 188 | 0.0 | 11.3 | 0.00 | 0.03 | 0.00 | 70 | 1010.5 |
| 20260506043058 | 18 | 0 | 0.0 | 11.3 | 0.00 | 0.03 | 0.00 | 70 | 1010.4 |
| 20260506042553 | 18 | 140 | 0.0 | 11.3 | 0.00 | 0.03 | 0.00 | 69 | 1010.3 |
| 20260506042053 | 18 | 0 | 0.0 | 4.8 | 0.00 | 0.03 | 0.00 | 69 | 1010.5 |
| 20260506041556 | 18 | 0 | 0.0 | 4.8 | 0.00 | 0.03 | 0.00 | 69 | 1010.5 |
| 20260506041053 | 18 | 0 | 0.0 | 4.8 | 0.00 | 0.03 | 0.00 | 69 | 1010.4 |
| 20260506040553 | 18 | 0 | 0.0 | 4.8 | 0.00 | 0.03 | 0.00 | 69 | 1010.5 |
| 20260506040059 | 18 | 0 | 0.0 | 4.8 | 0.00 | 0.03 | 0.00 | 68 | 1010.5 |
| 20260506035553 | 18 | 236 | 0.0 | 4.8 | 0.00 | 0.03 | 0.03 | 68 | 1010.4 |
| 20260506035053 | 19 | 0 | 0.0 | 4.8 | 0.00 | 0.03 | 0.03 | 67 | 1010.4 |
| 20260506034557 | 19 | 0 | 0.0 | 4.8 | 0.00 | 0.03 | 0.03 | 67 | 1010.5 |
| 20260506034052 | 19 | 0 | 0.0 | 8.0 | 0.00 | 0.03 | 0.03 | 66 | 1010.3 |
| 20260506033552 | 19 | 0 | 0.0 | 8.0 | 0.00 | 0.03 | 0.03 | 66 | 1010.3 |
| 20260506033055 | 20 | 236 | 0.0 | 9.7 | 0.00 | 0.03 | 0.03 | 66 | 1010.4 |
| 20260506032553 | 20 | 0 | 3.2 | 12.9 | 0.00 | 0.03 | 0.03 | 65 | 1010.3 |
| 20260506032053 | 20 | 187 | 3.2 | 12.9 | 0.00 | 0.03 | 0.03 | 66 | 1010.3 |
| 20260506031557 | 20 | 224 | 1.6 | 11.3 | 0.00 | 0.03 | 0.03 | 66 | 1010.3 |
| 20260506031055 | 20 | 188 | 1.6 | 11.3 | 0.00 | 0.03 | 0.03 | 65 | 1010.3 |
| 20260506030553 | 20 | 219 | 1.6 | 11.3 | 0.00 | 0.03 | 0.03 | 65 | 1010.3 |
| 20260506030056 | 20 | 184 | 1.6 | 12.9 | 0.00 | 0.03 | 0.03 | 64 | 1010.3 |
| 20260506025552 | 20 | 222 | 4.8 | 12.9 | 0.00 | 0.03 | 0.03 | 64 | 1010.3 |
| 20260506025052 | 20 | 154 | 1.6 | 12.9 | 0.00 | 0.03 | 0.03 | 64 | 1010.4 |
| 20260506024558 | 20 | 0 | 3.2 | 14.5 | 0.00 | 0.03 | 0.03 | 63 | 1010.3 |
| 20260506024055 | 20 | 201 | 6.4 | 14.5 | 0.00 | 0.03 | 0.03 | 63 | 1010.3 |
| 20260506023552 | 20 | 175 | 3.2 | 17.7 | 0.00 | 0.03 | 0.03 | 62 | 1010.3 |
| 20260506023055 | 20 | 155 | 3.2 | 17.7 | 0.00 | 0.03 | 0.03 | 62 | 1010.3 |
| 20260506022553 | 20 | 5 | 1.6 | 8.0 | 0.00 | 0.03 | 0.03 | 60 | 1010.3 |
| 20260506022053 | 21 | 0 | 1.6 | 6.4 | 0.00 | 0.03 | 0.03 | 59 | 1010.4 |
| 20260506021558 | 21 | 180 | 1.6 | 16.1 | 0.00 | 0.03 | 0.03 | 58 | 1010.3 |
| 20260506021053 | 21 | 188 | 3.2 | 16.1 | 0.00 | 0.03 | 0.03 | 57 | 1010.3 |
| 20260506020555 | 21 | 235 | 4.8 | 9.7 | 0.00 | 0.03 | 0.03 | 56 | 1010.1 |
| 20260506020055 | 21 | 180 | 1.6 | 9.7 | 0.00 | 0.03 | 0.03 | 55 | 1010.2 |
| 20260506015553 | 21 | 213 | 3.2 | 11.3 | 0.00 | 0.03 | 0.03 | 54 | 1010.2 |
| 20260506015055 | 21 | 186 | 3.2 | 11.3 | 0.00 | 0.03 | 0.03 | 53 | 1010.2 |
| 20260506014556 | 22 | 199 | 4.8 | 12.9 | 0.00 | 0.03 | 0.03 | 52 | 1010.1 |
| 20260506014054 | 22 | 196 | 4.8 | 12.9 | 0.00 | 0.03 | 0.03 | 52 | 1010.1 |
| 20260506013552 | 22 | 196 | 3.2 | 11.3 | 0.00 | 0.03 | 0.03 | 51 | 1010.1 |
| 20260506013059 | 22 | 203 | 3.2 | 14.5 | 0.00 | 0.03 | 0.03 | 51 | 1010.0 |
| 20260506012552 | 22 | 236 | 0.0 | 19.3 | 0.00 | 0.03 | 0.03 | 51 | 1009.9 |
| 20260506012058 | 22 | 192 | 3.2 | 19.3 | 0.00 | 0.03 | 0.03 | 49 | 1009.9 |
| 20260506011555 | 22 | 188 | 3.2 | 9.7 | 0.00 | 0.03 | 0.03 | 50 | 1009.8 |
| 20260506011052 | 22 | 205 | 0.0 | 14.5 | 0.00 | 0.03 | 0.03 | 50 | 1009.6 |
| 20260506010553 | 22 | 189 | 0.0 | 14.5 | 0.00 | 0.03 | 0.03 | 49 | 1009.6 |
| 20260506010058 | 22 | 209 | 0.0 | 22.5 | 0.00 | 0.03 | 0.03 | 50 | 1009.4 |
| 20260506005553 | 23 | 185 | 3.2 | 22.5 | 0.00 | 0.03 | 0.03 | 50 | 1009.4 |
| 20260506005053 | 23 | 0 | 1.6 | 14.5 | 0.00 | 0.03 | 0.03 | 50 | 1009.4 |
| 20260506004558 | 23 | 0 | 1.6 | 17.7 | 0.00 | 0.03 | 0.03 | 49 | 1009.2 |
| 20260506004053 | 22 | 190 | 1.6 | 17.7 | 0.00 | 0.03 | 0.03 | 49 | 1009.2 |
| 20260506003557 | 22 | 0 | 0.0 | 8.0 | 0.00 | 0.03 | 0.03 | 49 | 1009.2 |
| 20260506003112 | 23 | 0 | 0.0 | 14.5 | 0.00 | 0.03 | 0.03 | 50 | 1009.2 |
| 20260506002552 | 23 | 0 | 0.0 | 14.5 | 0.00 | 0.03 | 0.03 | 50 | 1009.1 |
| 20260506002053 | 23 | 180 | 1.6 | 12.9 | 0.00 | 0.03 | 0.03 | 49 | 1009.1 |
| 20260506001611 | 23 | 186 | 0.0 | 12.9 | 0.00 | 0.03 | 0.03 | 49 | 1009.1 |
| 20260506001053 | 23 | 194 | 0.0 | 9.7 | 0.00 | 0.03 | 0.03 | 48 | 1009.1 |
| 20260506000553 | 23 | 0 | 0.0 | 9.7 | 0.00 | 0.03 | 0.03 | 48 | 1009.1 |
| 20260506000058 | 22 | 0 | 0.0 | 8.0 | 0.00 | 0.03 | 0.03 | 48 | 1009.0 |
| 20260505235552 | 23 | 0 | 0.0 | 8.0 | 0.00 | 0.03 | 0.03 | 46 | 1009.0 |
| 20260505235052 | 23 | 0 | 0.0 | 8.0 | 0.00 | 0.03 | 0.03 | 47 | 1008.9 |
| 20260505234611 | 23 | 0 | 0.0 | 8.0 | 0.00 | 0.03 | 0.03 | 46 | 1009.0 |
| 20260505234053 | 23 | 0 | 0.0 | 6.4 | 0.00 | 0.03 | 0.03 | 45 | 1008.8 |
| 20260505233553 | 23 | 0 | 0.0 | 16.1 | 0.00 | 0.03 | 0.03 | 44 | 1008.9 |
| 20260505233057 | 23 | 0 | 0.0 | 16.1 | 0.00 | 0.03 | 0.03 | 43 | 1008.8 |
| 20260505232553 | 23 | 0 | 0.0 | 9.7 | 0.00 | 0.03 | 0.03 | 43 | 1008.7 |
| 20260505232056 | 24 | 0 | 0.0 | 9.7 | 0.00 | 0.03 | 0.03 | 43 | 1008.6 |
| 20260505231557 | 24 | 0 | 0.0 | 11.3 | 0.00 | 0.03 | 0.03 | 42 | 1008.6 |
| 20260505231052 | 24 | 0 | 0.0 | 11.3 | 0.00 | 0.03 | 0.03 | 42 | 1008.6 |
| 20260505230553 | 24 | 186 | 0.0 | 16.1 | 0.00 | 0.03 | 0.03 | 42 | 1008.5 |
| 20260505230053 | 24 | 0 | 0.0 | 17.7 | 0.00 | 0.03 | 0.03 | 43 | 1008.6 |
| 20260505225556 | 24 | 0 | 0.0 | 17.7 | 0.00 | 0.03 | 0.03 | 43 | 1008.6 |
| 20260505225053 | 24 | 183 | 1.6 | 11.3 | 0.00 | 0.03 | 0.03 | 41 | 1008.6 |
| 20260505224554 | 24 | 225 | 0.0 | 9.7 | 0.00 | 0.03 | 0.03 | 42 | 1008.5 |
| 20260505224055 | 25 | 0 | 0.0 | 14.5 | 0.00 | 0.03 | 0.03 | 41 | 1008.3 |
| 20260505223554 | 25 | 0 | 0.0 | 19.3 | 0.00 | 0.03 | 0.03 | 40 | 1008.5 |
| 20260505223108 | 25 | 0 | 1.6 | 19.3 | 0.00 | 0.03 | 0.03 | 41 | 1008.3 |
| 20260505222553 | 25 | 0 | 1.6 | 11.3 | 0.00 | 0.03 | 0.03 | 39 | 1008.3 |
| 20260505222053 | 25 | 0 | 0.0 | 8.0 | 0.00 | 0.03 | 0.03 | 39 | 1008.3 |
| 20260505221557 | 25 | 0 | 0.0 | 14.5 | 0.00 | 0.03 | 0.03 | 38 | 1008.4 |
| 20260505221054 | 25 | 0 | 0.0 | 14.5 | 0.00 | 0.03 | 0.03 | 40 | 1008.4 |
| 20260505220553 | 25 | 0 | 0.0 | 11.3 | 0.00 | 0.03 | 0.03 | 41 | 1008.5 |
| 20260505220100 | 25 | 0 | 0.0 | 17.7 | 0.00 | 0.03 | 0.03 | 38 | 1008.5 |
| 20260505215558 | 25 | 146 | 0.0 | 17.7 | 0.00 | 0.03 | 0.03 | 40 | 1008.5 |
| 20260505215053 | 25 | 216 | 1.6 | 17.7 | 0.00 | 0.03 | 0.03 | 38 | 1008.4 |
| 20260505214602 | 25 | 0 | 0.0 | 19.3 | 0.00 | 0.03 | 0.03 | 40 | 1008.2 |
| 20260505214053 | 25 | 0 | 0.0 | 19.3 | 0.00 | 0.03 | 0.03 | 38 | 1008.2 |
| 20260505213553 | 25 | 228 | 1.6 | 17.7 | 0.00 | 0.03 | 0.03 | 38 | 1008.1 |
| 20260505213055 | 25 | 146 | 4.8 | 17.7 | 0.00 | 0.03 | 0.03 | 40 | 1008.2 |
| 20260505212553 | 25 | 196 | 0.0 | 25.7 | 0.00 | 0.03 | 0.03 | 37 | 1008.0 |
| 20260505212053 | 25 | 0 | 3.2 | 25.7 | 0.00 | 0.03 | 0.03 | 38 | 1008.0 |
| 20260505211617 | 25 | 134 | 3.2 | 22.5 | 0.00 | 0.03 | 0.03 | 36 | 1007.9 |
| 20260505211054 | 26 | 0 | 1.6 | 17.7 | 0.00 | 0.03 | 0.03 | 38 | 1007.8 |
| 20260505210553 | 26 | 93 | 3.2 | 17.7 | 0.00 | 0.03 | 0.03 | 37 | 1007.7 |
| 20260505210056 | 26 | 245 | 0.0 | 22.5 | 0.00 | 0.03 | 0.03 | 38 | 1008.0 |
| 20260505205552 | 26 | 0 | 4.8 | 22.5 | 0.00 | 0.03 | 0.03 | 35 | 1007.8 |
| 20260505205052 | 26 | 177 | 4.8 | 17.7 | 0.00 | 0.03 | 0.03 | 36 | 1007.8 |
| 20260505204556 | 26 | 0 | 0.0 | 17.7 | 0.00 | 0.03 | 0.03 | 34 | 1007.8 |
| 20260505204057 | 26 | 192 | 4.8 | 24.1 | 0.00 | 0.03 | 0.03 | 35 | 1007.9 |
| 20260505203554 | 26 | 0 | 4.8 | 24.1 | 0.00 | 0.03 | 0.03 | 36 | 1007.9 |
| 20260505203114 | 27 | 190 | 1.6 | 16.1 | 0.00 | 0.03 | 0.03 | 37 | 1008.0 |
| 20260505202554 | 27 | 196 | 1.6 | 29.0 | 0.00 | 0.03 | 0.03 | 37 | 1007.9 |
| 20260505202054 | 26 | 0 | 0.0 | 29.0 | 0.00 | 0.03 | 0.03 | 38 | 1008.0 |
| 20260505201555 | 26 | 227 | 4.8 | 29.0 | 0.00 | 0.03 | 0.03 | 36 | 1008.0 |
| 20260505201053 | 27 | 177 | 3.2 | 20.9 | 0.00 | 0.03 | 0.03 | 35 | 1007.9 |
| 20260505200553 | 26 | 0 | 3.2 | 19.3 | 0.00 | 0.03 | 0.03 | 37 | 1007.9 |
| 20260505200055 | 26 | 221 | 4.8 | 17.7 | 0.00 | 0.03 | 0.03 | 38 | 1008.0 |
| 20260505195552 | 26 | 176 | 6.4 | 25.7 | 0.00 | 0.03 | 0.03 | 37 | 1008.1 |
| 20260505195052 | 27 | 209 | 4.8 | 25.7 | 0.00 | 0.03 | 0.03 | 40 | 1008.0 |
| 20260505194554 | 27 | 171 | 3.2 | 14.5 | 0.00 | 0.03 | 0.03 | 38 | 1008.1 |
| 20260505194053 | 27 | 0 | 0.0 | 14.5 | 0.00 | 0.03 | 0.03 | 44 | 1008.2 |
| 20260505193553 | 26 | 163 | 1.6 | 24.1 | 0.00 | 0.03 | 0.03 | 45 | 1008.2 |
| 20260505193051 | 26 | 177 | 1.6 | 24.1 | 0.00 | 0.03 | 0.03 | 43 | 1008.3 |
| 20260505192557 | 27 | 179 | 1.6 | 20.9 | 0.00 | 0.03 | 0.03 | 42 | 1008.3 |
| 20260505192054 | 27 | 0 | 0.0 | 25.7 | 0.00 | 0.03 | 0.03 | 45 | 1008.3 |
| 20260505191556 | 27 | 200 | 4.8 | 25.7 | 0.00 | 0.03 | 0.03 | 42 | 1008.4 |
| 20260505191053 | 27 | 186 | 4.8 | 19.3 | 0.00 | 0.03 | 0.03 | 42 | 1008.5 |
| 20260505190553 | 27 | 200 | 1.6 | 16.1 | 0.00 | 0.03 | 0.03 | 42 | 1008.5 |
| 20260505190056 | 27 | 0 | 1.6 | 16.1 | 0.00 | 0.03 | 0.03 | 42 | 1008.6 |
| 20260505185553 | 27 | 145 | 0.0 | 25.7 | 0.00 | 0.03 | 0.03 | 45 | 1008.7 |
| 20260505185053 | 27 | 205 | 3.2 | 25.7 | 0.00 | 0.03 | 0.03 | 45 | 1008.7 |
| 20260505184554 | 27 | 188 | 4.8 | 25.7 | 0.00 | 0.03 | 0.03 | 41 | 1008.7 |
| 20260505184054 | 27 | 207 | 3.2 | 22.5 | 0.00 | 0.03 | 0.03 | 44 | 1008.7 |
| 20260505183553 | 27 | 0 | 4.8 | 20.9 | 0.00 | 0.03 | 0.03 | 44 | 1008.8 |
| 20260505183055 | 26 | 224 | 4.8 | 17.7 | 0.00 | 0.03 | 0.03 | 44 | 1008.9 |
| 20260505182555 | 26 | 0 | 1.6 | 16.1 | 0.00 | 0.03 | 0.03 | 46 | 1008.9 |
| 20260505182054 | 26 | 0 | 0.0 | 14.5 | 0.00 | 0.03 | 0.03 | 47 | 1009.1 |
| 20260505181555 | 26 | 179 | 1.6 | 16.1 | 0.00 | 0.03 | 0.03 | 46 | 1009.2 |
| 20260505181052 | 27 | 173 | 1.6 | 16.1 | 0.00 | 0.03 | 0.03 | 44 | 1009.1 |
| 20260505180553 | 27 | 190 | 3.2 | 11.3 | 0.00 | 0.03 | 0.03 | 42 | 1009.1 |
| 20260505175553 | 27 | 0 | 1.6 | 16.1 | 0.00 | 0.03 | 0.03 | 43 | 1009.3 |
| 20260505175055 | 27 | 161 | 1.6 | 19.3 | 0.00 | 0.03 | 0.03 | 43 | 1009.3 |
| 20260505174556 | 26 | 0 | 0.0 | 19.3 | 0.00 | 0.03 | 0.03 | 46 | 1009.3 |
| 20260505174053 | 26 | 0 | 3.2 | 20.9 | 0.00 | 0.03 | 0.03 | 41 | 1009.4 |
| 20260505173552 | 26 | 185 | 8.0 | 29.0 | 0.00 | 0.03 | 0.03 | 43 | 1009.2 |
| 20260505173056 | 26 | 128 | 4.8 | 29.0 | 0.00 | 0.03 | 0.03 | 44 | 1009.3 |
| 20260505172556 | 26 | 0 | 0.0 | 9.7 | 0.00 | 0.03 | 0.03 | 47 | 1009.4 |
| 20260505172052 | 26 | 0 | 0.0 | 16.1 | 0.00 | 0.03 | 0.03 | 48 | 1009.4 |
| 20260505171558 | 26 | 196 | 0.0 | 19.3 | 0.00 | 0.03 | 0.03 | 48 | 1009.6 |
| 20260505171053 | 26 | 0 | 1.6 | 19.3 | 0.00 | 0.03 | 0.03 | 47 | 1009.6 |
| 20260505170553 | 26 | 153 | 0.0 | 9.7 | 0.00 | 0.03 | 0.03 | 50 | 1009.5 |
| 20260505170055 | 26 | 0 | 0.0 | 12.9 | 0.00 | 0.03 | 0.03 | 49 | 1009.8 |
| 20260505165552 | 26 | 0 | 0.0 | 12.9 | 0.00 | 0.03 | 0.03 | 46 | 1010.0 |
| 20260505165052 | 26 | 0 | 0.0 | 11.3 | 0.00 | 0.03 | 0.03 | 49 | 1009.9 |
| 20260505164556 | 26 | 177 | 0.0 | 11.3 | 0.00 | 0.03 | 0.03 | 53 | 1010.0 |
| 20260505164055 | 26 | 0 | 0.0 | 8.0 | 0.00 | 0.03 | 0.03 | 52 | 1010.1 |
| 20260505163554 | 26 | 0 | 0.0 | 8.0 | 0.00 | 0.03 | 0.03 | 50 | 1010.1 |
| 20260505163052 | 26 | 0 | 0.0 | 8.0 | 0.00 | 0.03 | 0.03 | 48 | 1010.1 |